Date,TemperatureHighF,TemperatureAvgF,TemperatureLowF,DewpointHighF,DewpointAvgF,DewpointLowF,HumidityHigh,HumidityAvg,HumidityLow,PressureMaxIn,PressureMinIn,WindSpeedMaxMPH,WindSpeedAvgMPH,GustSpeedMaxMPH,PrecipitationSumIn
2013-3-1,54,48,44,53,46,44,100,94,79,30.19,30.14,11,0,11,0.02
2013-3-2,47,42,36,47,40,28,100,93,67,30.16,29.99,32,3,32,0.15
2013-3-3,45,39,32,37,31,27,95,75,52,30.24,30.13,23,4,23,0.00
2013-3-4,41,36,31,36,32,29,95,87,75,30.24,29.89,5,1,5,0.01
2013-3-5,43,38,34,38,35,30,100,88,73,29.89,29.67,13,1,13,0.10
2013-3-6,38,38,37,38,38,37,100,100,99,29.81,29.57,5,0,5,0.44
2013-3-7,43,39,35,43,38,34,100,96,83,30.04,29.81,4,0,4,0.04
2013-3-8,44,39,34,40,37,34,100,92,74,30.18,30.03,11,1,11,0.00
2013-3-9,47,39,33,40,36,31,96,86,77,30.44,30.18,9,1,9,0.00
2013-3-10,40,39,36,40,38,36,100,96,85,30.42,30.36,6,1,6,0.15
2013-3-11,44,40,36,42,40,36,100,98,90,30.38,30.02,7,0,7,0.02
2013-3-12,49,46,40,49,46,40,100,100,99,30.02,29.90,4,0,4,0.26
2013-3-13,51,47,44,51,47,44,100,100,100,30.06,29.96,7,0,7,0.07
2013-3-14,51,47,44,47,45,43,100,94,79,30.03,29.93,11,1,11,0.00
2013-3-15,51,45,40,48,44,40,100,98,87,30.12,30.03,13,1,13,0.16
2013-3-16,44,40,36,44,39,31,100,95,80,30.05,29.82,23,3,23,0.24
2013-3-17,42,38,35,33,31,26,87,76,60,30.12,29.90,25,4,25,0.00
2013-3-18,46,39,34,35,31,21,93,75,42,30.19,30.00,25,4,25,0.05
2013-3-19,41,37,33,39,34,30,97,89,75,30.16,29.41,14,1,14,0.01
2013-3-20,47,40,34,44,38,26,100,91,68,29.92,29.19,26,3,26,0.68
2013-3-21,41,35,32,36,30,24,97,80,63,30.14,29.92,19,3,19,0.06
2013-3-22,42,36,31,32,28,20,92,72,48,30.31,30.14,15,2,15,0.00
2013-3-23,44,37,31,34,31,28,92,80,63,30.32,30.24,11,0,11,0.00
2013-3-24,44,37,32,35,32,29,91,83,65,30.24,30.08,12,1,12,0.00
2013-3-25,52,42,34,38,34,30,94,76,43,30.08,29.91,10,1,10,0.00
2013-3-26,52,46,40,42,36,32,82,70,50,29.95,29.90,6,1,6,0.00
2013-3-27,52,46,42,44,40,38,97,82,64,29.93,29.89,11,1,11,0.01
2013-3-28,53,46,41,46,43,40,97,89,75,30.08,29.93,7,1,7,0.01
2013-3-29,57,47,42,46,43,39,98,86,61,30.20,30.08,9,1,9,0.00
2013-3-30,60,49,42,45,41,36,86,75,55,30.22,30.05,10,1,10,0.00
2013-3-31,64,52,42,46,40,37,87,66,38,30.05,29.87,11,2,11,0.00